Abingdon, VA

8:41 PM EDT on March 30, 2017 (GMT -0400)
Virginia Highlands

Weather History for KVJI - February, 2013

Change the Weather History Date:

Saturday, February 2, 2013

  Actual Average (KTRI) Record (KTRI)
Temperature  
Mean Temperature 23 °F -  
Max Temperature 30 °F 48 °F 71 °F (1989)
Min Temperature 16 °F 28 °F 0 °F (1971)
Degree Days  
Heating Degree Days 42    
Moisture  
Dew Point 21 °F    
Average Humidity 85    
Maximum Humidity 100    
Minimum Humidity 51    
Precipitation  
Precipitation 0.22 in - - ()
Sea Level Pressure  
Sea Level Pressure 30.14 in    
Wind  
Wind Speed 2 mph (West)    
Max Wind Speed 16 mph    
Max Gust Speed 21 mph    
Visibility 6 miles    
Events Snow    
Averages and records for this station are not official NWS values.
T = Trace of Precipitation, MM = Missing Value Source: NWS Daily Summary

Daily Weather History Graph

Daily Weather History Graph

Search for Another Location

Airport or City:

Trip Planner

Search our weather history database for the weather conditions in past years. The results will help you decide how hot, cold, wet, or windy it might be!

Date:

Astronomy

Feb. 02, 2013 Rise Set
Actual Time 7:29 AM EST 5:55 PM EST
Civil Twilight 7:01 AM EST 6:22 PM EST
Nautical Twilight 6:31 AM EST 6:53 PM EST
Astronomical Twilight 6:00 AM EST 7:23 PM EST
Moon No Moon Rise 10:50 AM EST (2/2)
Length of Visible Light 11h 20m
Length of Day
10h 26m
Waning Gibbous, 60% of the Moon is Illuminated
Feb 2
Waning Gibbous
Feb 3
Last Quarter
Feb 10
New
Feb 17
First Quarter
Feb 25
Full

Hourly Weather History & Observations

Time (EST) Temp. Windchill Dew Point Humidity Pressure Visibility Wind Dir Wind Speed Gust Speed Precip Events Conditions
12:15 AM 18.5 °F 13.3 °F 11.8 °F 75% 30.28 in 10.0 mi West 3.5 mph - N/A   Clear
12:35 AM 18.3 °F 13.1 °F 12.2 °F 77% 30.28 in 10.0 mi West 3.5 mph - N/A   Clear
1:15 AM 19.0 °F - 12.9 °F 77% 30.27 in 10.0 mi Calm Calm - N/A   Clear
1:35 AM 18.9 °F - 13.1 °F 78% 30.26 in 10.0 mi Calm Calm - N/A   Clear
1:55 AM 18.7 °F - 12.9 °F 78% 30.25 in 10.0 mi Calm Calm - N/A   Clear
2:15 AM 17.8 °F - 14.4 °F 86% 30.25 in 10.0 mi Calm Calm - N/A   Clear
2:35 AM 17.8 °F - 13.5 °F 83% 30.25 in 10.0 mi Calm Calm - N/A   Clear
2:55 AM 17.6 °F - 13.8 °F 85% 30.25 in 10.0 mi Calm Calm - N/A   Clear
3:15 AM 18.1 °F - 13.1 °F 81% 30.25 in 10.0 mi Calm Calm - N/A   Clear
3:35 AM 18.0 °F - 13.1 °F 81% 30.25 in 10.0 mi Calm Calm - N/A   Clear
3:55 AM 17.4 °F - 13.1 °F 83% 30.25 in 10.0 mi Calm Calm - N/A   Clear
4:15 AM 17.4 °F - 13.3 °F 84% 30.25 in 10.0 mi Calm Calm - N/A   Clear
4:35 AM 17.1 °F - 14.0 °F 88% 30.24 in 10.0 mi Calm Calm - N/A   Clear
4:55 AM 16.7 °F - 13.3 °F 86% 30.23 in 10.0 mi Calm Calm - N/A   Clear
5:15 AM 17.4 °F - 13.5 °F 84% 30.23 in 10.0 mi Calm Calm - N/A   Clear
5:35 AM 17.2 °F - 13.1 °F 84% 30.22 in 10.0 mi Calm Calm - N/A   Clear
5:55 AM 17.2 °F 11.9 °F 13.6 °F 86% 30.23 in 10.0 mi East 3.5 mph - N/A   Clear
6:15 AM 16.7 °F - 13.8 °F 88% 30.23 in 10.0 mi Calm Calm - N/A   Scattered Clouds
6:35 AM 16.9 °F - 14.0 °F 88% 30.23 in 10.0 mi Calm Calm - N/A   Mostly Cloudy
6:55 AM 17.2 °F - 13.8 °F 86% 30.23 in 10.0 mi Calm Calm - N/A   Overcast
7:15 AM 17.4 °F - 14.2 °F 87% 30.23 in 10.0 mi Calm Calm - N/A   Overcast
7:55 AM 20.3 °F - 15.3 °F 81% 30.23 in 10.0 mi Calm Calm - N/A   Overcast
8:15 AM 21.0 °F - 16.3 °F 82% 30.23 in 10.0 mi Calm Calm - N/A   Overcast
8:35 AM 22.1 °F - 17.2 °F 82% 30.23 in 10.0 mi Calm Calm - N/A   Overcast
8:55 AM 23.4 °F - 17.6 °F 79% 30.23 in 10.0 mi Calm Calm - N/A   Overcast
9:15 AM 23.9 °F - 16.7 °F 74% 30.22 in 10.0 mi Calm Calm - N/A   Overcast
9:35 AM 24.6 °F - 14.9 °F 67% 30.21 in 10.0 mi Calm Calm - N/A   Overcast
9:55 AM 25.7 °F - 16.3 °F 68% 30.20 in 10.0 mi Calm Calm - N/A   Overcast
10:15 AM 26.4 °F - 15.1 °F 62% 30.18 in 10.0 mi Calm Calm - N/A   Mostly Cloudy
10:35 AM 28.0 °F - 14.5 °F 57% 30.18 in 10.0 mi Calm Calm - N/A   Mostly Cloudy
10:55 AM 28.9 °F - 14.0 °F 54% 30.18 in 10.0 mi Calm Calm - N/A   Overcast
11:15 AM 29.3 °F 23.2 °F 15.3 °F 56% 30.18 in 10.0 mi West 5.8 mph - N/A   Overcast
11:35 AM 29.7 °F 22.0 °F 14.7 °F 54% 30.19 in 10.0 mi West 8.1 mph - N/A   Overcast
11:55 AM 30.0 °F 22.4 °F 14.7 °F 53% 30.20 in 10.0 mi WNW 8.1 mph - N/A   Overcast
12:15 PM 30.2 °F 20.2 °F 14.0 °F 51% 30.18 in 10.0 mi West 12.7 mph - N/A   Overcast
12:35 PM 29.8 °F 18.4 °F 18.0 °F 61% 30.15 in 5.0 mi West 16.1 mph 20.7 mph N/A   Haze
12:55 PM 28.4 °F 19.1 °F 21.9 °F 77% 30.14 in 2.0 mi West 10.4 mph - N/A Snow Light Snow
1:15 PM 27.5 °F 19.3 °F 24.4 °F 88% 30.12 in 2.0 mi WSW 8.1 mph - N/A Snow Light Snow
1:35 PM 27.5 °F 18.6 °F 25.0 °F 90% 30.10 in 1.0 mi West 9.2 mph - N/A Snow Light Snow
1:55 PM 27.7 °F 20.4 °F 25.7 °F 92% 30.09 in 1.2 mi WSW 6.9 mph - N/A Snow Light Snow
2:15 PM 28.4 °F 21.2 °F 26.4 °F 92% 30.07 in 1.8 mi WNW 6.9 mph - N/A Snow Light Snow
2:35 PM 28.4 °F 20.4 °F 26.6 °F 93% 30.07 in 0.8 mi WNW 8.1 mph - N/A Snow Light Snow
2:55 PM 28.2 °F 23.1 °F 26.6 °F 94% 30.06 in 0.8 mi West 4.6 mph - 0.01 in Snow Light Snow
3:15 PM 28.4 °F 23.3 °F 27.3 °F 96% 30.05 in 1.0 mi West 4.6 mph - N/A Snow Light Snow
3:35 PM 28.8 °F 22.6 °F 27.3 °F 94% 30.05 in 1.2 mi West 5.8 mph - N/A Snow Light Snow
3:55 PM 28.8 °F 23.7 °F 27.3 °F 94% 30.04 in 1.2 mi West 4.6 mph - N/A Snow Light Snow
4:15 PM 28.4 °F 24.6 °F 27.3 °F 96% 30.03 in 0.8 mi West 3.5 mph - 0.01 in Snow Light Snow
4:35 PM 28.4 °F 23.3 °F 27.5 °F 96% 30.03 in 0.8 mi West 4.6 mph - 0.02 in Snow Light Snow
5:15 PM 28.4 °F 23.3 °F 27.7 °F 97% 30.02 in 1.0 mi West 4.6 mph - 0.01 in Snow Light Snow
5:35 PM 28.4 °F - 28.2 °F 99% 30.02 in 0.8 mi Calm Calm - 0.02 in Snow Light Snow
6:15 PM 28.4 °F - 27.9 °F 98% 30.01 in 2.5 mi Calm Calm - 0.01 in Snow Light Snow
6:35 PM 28.4 °F - 28.0 °F 99% 30.01 in 3.0 mi Calm Calm - 0.01 in Snow Light Snow
6:55 PM 28.4 °F - 28.4 °F 100% 30.01 in 1.0 mi Calm Calm - 0.02 in Snow Snow
7:15 PM 28.4 °F - 28.4 °F 100% 30.02 in 1.5 mi Calm Calm - 0.01 in Snow Light Snow
7:35 PM 28.4 °F - 28.4 °F 100% 30.01 in 1.5 mi Calm Calm - 0.04 in Snow Light Snow
7:55 PM 28.6 °F - 28.6 °F 100% 30.02 in 1.8 mi Calm Calm - 0.05 in Snow Light Snow
8:15 PM 28.6 °F - 28.6 °F 100% 30.02 in 2.5 mi Calm Calm - 0.01 in Snow Light Snow
8:35 PM 28.8 °F 25.0 °F 28.8 °F 100% 30.02 in 1.2 mi West 3.5 mph - 0.02 in Snow Light Snow
8:55 PM 28.9 °F 25.2 °F 28.9 °F 100% 30.02 in 1.2 mi West 3.5 mph - 0.03 in Snow Light Snow
9:15 PM 28.9 °F 23.9 °F 28.9 °F 100% 30.03 in 1.0 mi West 4.6 mph - 0.01 in Snow Snow
9:35 PM 29.1 °F 25.4 °F 29.1 °F 100% 30.02 in 1.2 mi West 3.5 mph - 0.02 in Snow Snow
9:55 PM 29.1 °F 25.4 °F 29.1 °F 100% 30.02 in 1.8 mi West 3.5 mph - 0.04 in Snow Light Snow
10:15 PM 29.3 °F 24.3 °F 29.3 °F 100% 30.02 in 1.0 mi West 4.6 mph - 0.01 in Snow Snow
10:35 PM 29.5 °F 24.5 °F 29.5 °F 100% 30.02 in 5.0 mi West 4.6 mph - 0.02 in Snow Light Snow
10:55 PM 29.8 °F 23.0 °F 29.8 °F 100% 30.02 in 2.5 mi West 6.9 mph - 0.02 in   Overcast
11:15 PM 30.0 °F 24.1 °F 30.0 °F 100% 30.01 in 1.8 mi West 5.8 mph - 0.01 in   Overcast
11:35 PM 30.2 °F 25.4 °F 30.2 °F 100% 30.01 in 1.8 mi West 4.6 mph - 0.01 in Snow Light Snow